[[{"header":{"parameterUnit":"m.s-1","parameterCategory":1,"la1":30.2991,"la2":30.254,"lo1":-89.0895,"lo2":-89.0444,"dy":0.0017,"dx":0.0017,"nx":28,"ny":28,"refTime":"2025-11-22T09:00:00:Z","depth":0,"parameterNumber":2,"parameterNumberName":"U-component_of_WINDS"},"data":[0,0,0,0,0,0,0,0,0,0,0,0,0,0,0,0,0,0,0,0,0,0,0,0,0,0,0,0,0,0,0,0,0,0,0,0,0,0,0,0,0,0,0,0,0,0,0,0,0,0,0,0,0,0,0,0,0,0,0.0065,0.0066,0,0.0114,0.0115,0.0115,0.012,0.0119,0.0119,0.0118,0.0167,0.0169,0.017,0,0,0,0,0,0,0,0,0,0,0,0,0,-0.0025,-0.0023,0.0065,0.0066,0.0066,0.0114,0.0115,0.0115,0.012,0.0119,0.0118,0.0118,0.0166,0.0168,0.017,0,0,0,0,0,0,0,0,0,0,0,0,0,0.0018,-0.0022,0.0065,0.0074,0.0076,0.0114,0.0115,0.0116,0.012,0.0119,0.0118,0.0117,0.0165,0.0168,0.0171,0.0203,0,0,0.0179,0.018,0,0,0,0,0,0,0,0,0.0016,0.0022,0.0072,0.0074,0.0075,0.011,0.0101,0.0145,0.012,0.0103,0.0118,0.0117,0.0148,0.0152,0.0163,0.0205,0.0207,0.0179,0.0181,0.0182,0.0183,0,0,0,0,0,0,0,0.0013,0.002,0.0084,0.0073,0.0075,0.0076,0.0081,0.0109,0.0129,0.0104,0.0105,0.0111,0.0149,0.0161,0.0164,0.0208,0.0179,0.0181,0.0183,0.0184,0.028,0.0281,0,0,0,0,0,0,0.0008,0.0017,0.0083,0.0086,0.0043,0.0078,0.0084,0.01,0.0129,0.0133,0.0111,0.0111,0.0157,0.0161,0.0166,0.0207,0.0182,0.0184,0.0186,0.0279,0.0281,0.0282,0,0,0,0,0,0,0.0006,0.0014,0.0081,0.0052,0.006,0.0081,0.0098,0.0101,0.0113,0.0134,0.0138,0.0119,0.0156,0.0162,0.0194,0.0209,0.0186,0.0188,0.0278,0.028,0.0281,0.0288,0,0,0,0,0,0,0.0004,0.0013,0.0026,0.0052,0.0062,0.0108,0.0099,0.0102,0.0117,0.0117,0.0143,0.0146,0.0156,0.019,0.0197,0.0212,0.019,0.0277,0.0279,0.0281,0.0286,0.0289,0.0292,0,0,0,0,0,0.0001,0.0025,0.0026,0.0034,0.0078,0.0109,0.0114,0.0125,0.0118,0.0131,0.0145,0.0146,0.0206,0.0193,0.0201,0.0217,0.0276,0.0278,0.028,0.0285,0.0288,0.0291,0,0,0,0,0,0,-0.0001,0.0028,0.003,0.0064,0.0084,0.0109,0.0126,0.0128,0.015,0.0149,0.0161,0.0167,0.0199,0.0211,0.0196,0.025,0.024,0.0244,0.0241,0.0245,0.0247,0.0244,0.0192,0,0,0,0,0,0.0002,0.0025,0.005,0.0077,0.0087,0.0105,0.0119,0.0126,0.0147,0.0155,0.0172,0.0192,0.0216,0.0231,0.0254,0.0288,0.0294,0.0303,0.0306,0.0308,0.0311,0.0331,0.0336,0.0289,0.0289,0.0289,0,0,0.001,0.0029,0.0042,0.0077,0.0094,0.0118,0.0112,0.0137,0.0155,0.0159,0.019,0.0203,0.0227,0.026,0.0276,0.0271,0.0325,0.031,0.0312,0.0314,0.0334,0.0338,0.0342,0.029,0.029,0.029,0,0,0.0035,0.0052,0.0077,0.0094,0.012,0.0131,0.0138,0.0163,0.0173,0.0204,0.0208,0.023,0.027,0.0287,0.0301,0.0336,0.0337,0.0343,0.0357,0.0377,0.038,0.0384,0.0397,0.0401,0.0346,0.0346,0.0346,0,0.0041,0.0077,0.0089,0.0115,0.0131,0.0137,0.0163,0.0179,0.021,0.0221,0.0216,0.0268,0.0284,0.0322,0.0331,0.0342,0.0349,0.034,0.0379,0.0382,0.0386,0.0398,0.0403,0.0346,0.0346,0.0346,0.0346,0,0.0084,0.0109,0.0127,0.0158,0.0176,0.0201,0.0218,0.0234,0.024,0.0253,0.0286,0.0306,0.0333,0.0343,0.0348,0.0383,0.0379,0.0376,0.0366,0.0391,0.0403,0.0408,0.0347,0.0347,0.0347,0.0347,0,0,0.0109,0.0148,0.0154,0.0169,0.0199,0.0218,0.0245,0.0273,0.0287,0.0309,0.0332,0.0367,0.0365,0.0381,0.0388,0.0406,0.0433,0.0401,0.0402,0.0407,0.0474,0.0476,0.0481,0.0435,0.0436,0.0436,0.0472,0,0.0138,0.0186,0.0199,0.0239,0.0263,0.027,0.0293,0.0314,0.0327,0.0349,0.0363,0.0388,0.0383,0.0393,0.0411,0.0426,0.0447,0.0424,0.0456,0.0457,0.045,0.0487,0.0489,0.0522,0.0476,0.0477,0.0478,0,0.0179,0.0203,0.0246,0.0274,0.0285,0.0305,0.0333,0.0354,0.0378,0.0387,0.0406,0.0412,0.044,0.0429,0.0469,0.0453,0.0467,0.0477,0.0478,0.0482,0.0469,0.0492,0.0532,0.0537,0.0485,0.0485,0.0484,0,0.0194,0.0237,0.0269,0.0281,0.0314,0.0329,0.0343,0.0367,0.0383,0.0408,0.0419,0.0445,0.046,0.0481,0.0494,0.0485,0.0533,0.0523,0.0541,0.0541,0.0551,0.055,0.0594,0.0559,0.0559,0.0559,0.0559,0,0.0225,0.0252,0.0276,0.0295,0.0326,0.034,0.037,0.0384,0.0406,0.0428,0.0436,0.0457,0.0474,0.0497,0.0508,0.054,0.0546,0.0554,0.0556,0.0553,0.0552,0.0563,0.0561,0.056,0.056,0.056,0.056,0,0.0247,0.0264,0.0299,0.0328,0.0337,0.0358,0.0383,0.0402,0.0416,0.0445,0.0452,0.0474,0.0502,0.0518,0.0553,0.0561,0.0596,0.0597,0.0588,0.059,0.0607,0.0605,0.0659,0.0668,0.0627,0.0627,0.0628,0,0.0266,0.0287,0.0319,0.0335,0.035,0.0376,0.0393,0.0409,0.0427,0.0457,0.0473,0.0502,0.0526,0.0571,0.059,0.0617,0.0619,0.0637,0.0624,0.062,0.062,0.0619,0.0622,0.0639,0.0639,0.0639,0.064,0,0.0299,0.0307,0.0332,0.0361,0.0382,0.0405,0.0428,0.044,0.046,0.048,0.051,0.0528,0.0565,0.0594,0.0624,0.0638,0.0643,0.0644,0.065,0.0647,0.0641,0.0645,0.0595,0.0642,0.0642,0.0642,0.0642,0.0642,0.032,0.0339,0.0366,0.0394,0.0413,0.0435,0.0455,0.0472,0.0497,0.0529,0.0537,0.0568,0.0593,0.0633,0.0649,0.0674,0.0671,0.0679,0.0681,0.0683,0.0684,0.0637,0.0679,0.0679,0.0679,0.0679,0.0679,0,0.0354,0.0371,0.0397,0.043,0.0453,0.0455,0.0481,0.05,0.0528,0.0551,0.0575,0.061,0.0639,0.066,0.069,0.0706,0.0708,0.0713,0.0712,0.0715,0.0685,0.0677,0.071,0.071,0.071,0.071,0.071,0.071,0.0374,0.0407,0.0419,0.0462,0.0479,0.0511,0.0526,0.0546,0.0565,0.0604,0.0628,0.0642,0.0665,0.0697,0.0723,0.0729,0.0739,0.0744,0.075,0.0721,0.0717,0.0714,0.0707,0.0746,0.0746,0.0778,0.0779,0.0779]},{"header":{"parameterUnit":"m.s-1","parameterCategory":1,"la1":30.2991,"la2":30.254,"lo1":-89.0895,"lo2":-89.0444,"dy":0.0017,"dx":0.0017,"nx":28,"ny":28,"refTime":"2025-11-22T09:00:00:Z","depth":0,"parameterNumber":3,"parameterNumberName":"V-component_of_WINDS"},"data":[0,0,0,0,0,0,0,0,0,0,0,0,0,0,0,0,0,0,0,0,0,0,0,0,0,0,0,0,0,0,0,0,0,0,0,0,0,0,0,0,0,0,0,0,0,0,0,0,0,0,0,0,0,0,0,0,0,0,-3.3016,-3.3015,0,-3.2955,-3.2954,-3.2954,-3.2904,-3.2904,-3.2903,-3.2903,-3.2839,-3.2837,-3.2836,0,0,0,0,0,0,0,0,0,0,0,0,0,-3.3088,-3.3087,-3.3016,-3.3015,-3.3015,-3.2955,-3.2954,-3.2953,-3.2904,-3.2904,-3.2903,-3.2902,-3.2839,-3.2838,-3.2836,0,0,0,0,0,0,0,0,0,0,0,0,0,-3.3045,-3.3087,-3.3016,-3.2983,-3.2979,-3.2955,-3.2954,-3.2953,-3.2904,-3.2903,-3.2903,-3.2902,-3.284,-3.2838,-3.2836,-3.284,0,0,-3.283,-3.2829,0,0,0,0,0,0,0,0,-3.3048,-3.3043,-3.2988,-3.2985,-3.2981,-3.2936,-3.2956,-3.2915,-3.2904,-3.2933,-3.2903,-3.2902,-3.2872,-3.2867,-3.2857,-3.2837,-3.2834,-3.283,-3.2829,-3.2828,-3.2828,0,0,0,0,0,0,0,-3.3051,-3.3045,-3.2992,-3.2988,-3.2983,-3.297,-3.2963,-3.2948,-3.2907,-3.293,-3.2926,-3.292,-3.2869,-3.2859,-3.2855,-3.2833,-3.283,-3.2829,-3.2827,-3.2827,-3.2813,-3.2814,0,0,0,0,0,0,-3.3059,-3.3048,-3.2994,-3.299,-3.3013,-3.297,-3.2962,-3.2951,-3.2907,-3.29,-3.2921,-3.2918,-3.2863,-3.2858,-3.2853,-3.2855,-3.2828,-3.2827,-3.2825,-3.2812,-3.2813,-3.2814,0,0,0,0,0,0,-3.3061,-3.3055,-3.2996,-3.3018,-3.3009,-3.2969,-3.2958,-3.2951,-3.294,-3.29,-3.2892,-3.2918,-3.2862,-3.2856,-3.2844,-3.2852,-3.2826,-3.2824,-3.2811,-3.2813,-3.2814,-3.2859,0,0,0,0,0,0,-3.3063,-3.3056,-3.3057,-3.3018,-3.3008,-3.2988,-3.2958,-3.295,-3.2937,-3.2933,-3.2895,-3.2888,-3.2861,-3.2847,-3.2842,-3.2849,-3.2823,-3.281,-3.2812,-3.2813,-3.2857,-3.2862,-3.2866,0,0,0,0,0,-3.3066,-3.3072,-3.3057,-3.3051,-3.301,-3.2989,-3.2983,-3.2952,-3.2938,-3.2939,-3.2913,-3.289,-3.2852,-3.2846,-3.284,-3.2847,-3.281,-3.2811,-3.2813,-3.2855,-3.2861,-3.2866,0,0,0,0,0,0,-3.3112,-3.3066,-3.305,-3.3043,-3.3021,-3.2981,-3.2981,-3.2959,-3.294,-3.2936,-3.2898,-3.289,-3.2882,-3.2863,-3.2857,-3.2849,-3.2828,-3.2828,-3.2862,-3.2867,-3.2872,-3.2877,-3.2821,0,0,0,0,0,-3.3122,-3.311,-3.307,-3.3068,-3.3058,-3.3022,-3.3011,-3.2989,-3.2964,-3.2954,-3.2927,-3.2903,-3.2885,-3.2875,-3.2857,-3.2854,-3.2845,-3.2855,-3.286,-3.2864,-3.2865,-3.2863,-3.2867,-3.2819,-3.2819,-3.2819,0,0,-3.3142,-3.3115,-3.3109,-3.3077,-3.3057,-3.3045,-3.3014,-3.3002,-3.2993,-3.2952,-3.2939,-3.2919,-3.2889,-3.2882,-3.2877,-3.2866,-3.2877,-3.2866,-3.287,-3.2869,-3.2865,-3.287,-3.2874,-3.2821,-3.282,-3.282,0,0,-3.3171,-3.315,-3.3147,-3.3127,-3.3097,-3.3073,-3.3072,-3.3035,-3.302,-3.3007,-3.2976,-3.2964,-3.2935,-3.2916,-3.2902,-3.2924,-3.2902,-3.2919,-3.2944,-3.2942,-3.2946,-3.2949,-3.2958,-3.2962,-3.2921,-3.2921,-3.2921,0,-3.32,-3.3181,-3.3147,-3.3138,-3.3125,-3.3087,-3.3084,-3.3066,-3.3031,-3.3023,-3.301,-3.2974,-3.2951,-3.2939,-3.2945,-3.2934,-3.2932,-3.2924,-3.2948,-3.2951,-3.2953,-3.2962,-3.2965,-3.2923,-3.2923,-3.2923,-3.2922,0,-3.3217,-3.3205,-3.3205,-3.3174,-3.316,-3.3154,-3.3119,-3.3109,-3.3088,-3.3065,-3.3053,-3.3024,-3.3,-3.2995,-3.2974,-3.298,-3.2974,-3.2955,-3.2934,-3.2961,-3.2968,-3.2971,-3.2927,-3.2926,-3.2925,-3.2924,0,0,-3.3275,-3.3225,-3.3226,-3.3212,-3.3176,-3.3165,-3.3157,-3.3133,-3.3126,-3.3103,-3.3096,-3.3072,-3.3054,-3.3039,-3.3015,-3.3013,-3.3034,-3.2995,-3.2994,-3.3004,-3.304,-3.3055,-3.3059,-3.3019,-3.3019,-3.3019,-3.3043,0,-3.33,-3.3284,-3.3254,-3.3247,-3.3235,-3.3199,-3.3192,-3.3169,-3.3147,-3.3134,-3.3109,-3.3093,-3.3071,-3.3062,-3.3058,-3.3033,-3.3041,-3.303,-3.3011,-3.3011,-3.3021,-3.3063,-3.3079,-3.3102,-3.3045,-3.3046,-3.3046,0,-3.3327,-3.3307,-3.33,-3.3265,-3.3259,-3.3253,-3.323,-3.3217,-3.319,-3.3174,-3.3157,-3.3131,-3.312,-3.31,-3.3085,-3.3078,-3.3068,-3.3055,-3.3055,-3.3053,-3.3031,-3.3063,-3.3109,-3.3113,-3.305,-3.3049,-3.3049,0,-3.3372,-3.3343,-3.3335,-3.3323,-3.3282,-3.3279,-3.3262,-3.3234,-3.3222,-3.3201,-3.3193,-3.3171,-3.3159,-3.3143,-3.3112,-3.31,-3.31,-3.3077,-3.3087,-3.3088,-3.3089,-3.309,-3.3136,-3.3082,-3.3081,-3.3081,-3.3081,0,-3.3403,-3.34,-3.3354,-3.335,-3.3345,-3.331,-3.3306,-3.3285,-3.3261,-3.3251,-3.3218,-3.321,-3.3169,-3.3156,-3.3131,-3.3123,-3.3117,-3.3104,-3.3098,-3.3108,-3.311,-3.3102,-3.31,-3.3082,-3.3082,-3.3082,-3.3082,0,-3.3452,-3.3422,-3.3411,-3.3373,-3.3363,-3.3362,-3.3329,-3.3323,-3.3299,-3.3287,-3.3282,-3.3245,-3.3228,-3.3195,-3.3168,-3.3152,-3.3149,-3.3137,-3.3158,-3.3155,-3.3167,-3.3167,-3.321,-3.3214,-3.3157,-3.3157,-3.3158,0,-3.3475,-3.3472,-3.3434,-3.3426,-3.341,-3.3397,-3.3385,-3.3349,-3.3338,-3.3307,-3.3305,-3.3285,-3.3268,-3.3242,-3.3212,-3.3191,-3.318,-3.3196,-3.3176,-3.3187,-3.3181,-3.3182,-3.3182,-3.3201,-3.3202,-3.3203,-3.3203,0,-3.3519,-3.3504,-3.3489,-3.3468,-3.3454,-3.3436,-3.3416,-3.341,-3.337,-3.3359,-3.3342,-3.3328,-3.3301,-3.3282,-3.3257,-3.3239,-3.3215,-3.3209,-3.3211,-3.3222,-3.3235,-3.3229,-3.3172,-3.3209,-3.3208,-3.3208,-3.3208,-3.3207,-3.3557,-3.3553,-3.3526,-3.3509,-3.3491,-3.3473,-3.3465,-3.3441,-3.3426,-3.3401,-3.3381,-3.3365,-3.3338,-3.3303,-3.3286,-3.3273,-3.3261,-3.3263,-3.3263,-3.3265,-3.3269,-3.3236,-3.3268,-3.3267,-3.3267,-3.3267,-3.3267,0,-3.36,-3.3581,-3.3566,-3.354,-3.3527,-3.3505,-3.3482,-3.3472,-3.3459,-3.3436,-3.342,-3.3399,-3.3381,-3.335,-3.3328,-3.3324,-3.3312,-3.332,-3.332,-3.3317,-3.328,-3.3282,-3.3329,-3.3329,-3.3329,-3.3329,-3.3329,-3.3329,-3.3621,-3.3614,-3.3596,-3.3578,-3.3559,-3.3544,-3.3532,-3.3515,-3.3497,-3.3476,-3.3461,-3.3441,-3.3415,-3.3391,-3.3373,-3.3364,-3.3359,-3.337,-3.3358,-3.3325,-3.3319,-3.3313,-3.3315,-3.3369,-3.3369,-3.3395,-3.3395,-3.3396]}]]